When you browse on this site, cookies collect data to enhance your experience and personalize the content and advertising you see.
Visit our Privacy Policy to learn more. By continuing to use the site, you agree to this use of cookies and data.
  • In Czech Republic
  • List of Countries
  • For 7 days
  • Water Temperature
  • Satellite Maps
  • Weather Map
  • Weather Widgets
  • user-avatar
    Login

    Hourly Weather Etchmiadzin

    Today, 22 March, Friday

    Time Temperature Precipitation Wind Pressure Humidity
    00:00 +8°C° 0 mm 1 mps 689 mmHg 51%
    01:00 +7°C° 0 mm 1 mps 689 mmHg 52%
    02:00 +7°C° 0 mm 1 mps 689 mmHg 54%
    03:00 +6°C° 0 mm 1 mps 689 mmHg 56%
    04:00 +6°C° 0 mm 1 mps 689 mmHg 57%
    05:00 +5°C° 0 mm 1 mps 689 mmHg 58%
    06:00 +5°C° 0 mm 1 mps 689 mmHg 58%
    07:00 +6°C° 0 mm 1 mps 689 mmHg 54%
    08:00 +8°C° 0 mm 1 mps 689 mmHg 49%
    09:00 +9°C° 0 mm 1 mps 689 mmHg 45%
    10:00 +10°C° 0 mm 1 mps 688 mmHg 42%
    11:00 +10°C° 0 mm 2 mps 688 mmHg 39%
    12:00 +12°C° 0 mm 2 mps 688 mmHg 37%
    13:00 +12°C° 0 mm 2 mps 687 mmHg 35%
    14:00 +13°C° 0 mm 2 mps 687 mmHg 33%
    15:00 +13°C° 0 mm 2 mps 687 mmHg 30%
    16:00 +12°C° 0 mm 2 mps 687 mmHg 31%
    17:00 +12°C° 0 mm 2 mps 687 mmHg 32%
    18:00 +11°C° 0 mm 1 mps 687 mmHg 32%
    19:00 +10°C° 0 mm 1 mps 687 mmHg 34%
    20:00 +9°C° 0 mm 1 mps 688 mmHg 36%
    21:00 +8°C° 0 mm 1 mps 688 mmHg 39%
    22:00 +8°C° 0 mm 1 mps 688 mmHg 41%
    23:00 +7°C° 0 mm 1 mps 688 mmHg 43%

    Tomorrow, 23 March, Saturday

    Time Temperature Precipitation Wind Pressure Humidity
    00:00 +6°C° 0 mm 1 mps 688 mmHg 45%
    01:00 +6°C° 0 mm 1 mps 688 mmHg 47%
    02:00 +5°C° 0 mm 1 mps 688 mmHg 49%
    03:00 +5°C° 0 mm 1 mps 687 mmHg 50%
    04:00 +5°C° 0 mm 1 mps 687 mmHg 52%
    05:00 +4°C° 0 mm 1 mps 687 mmHg 53%
    06:00 +4°C° 0 mm 1 mps 687 mmHg 54%
    07:00 +5°C° 0 mm 1 mps 687 mmHg 49%
    08:00 +5°C° 0 mm 2 mps 687 mmHg 44%
    09:00 +7°C° 0 mm 2 mps 687 mmHg 40%
    10:00 +8°C° 0 mm 2 mps 686 mmHg 36%
    11:00 +9°C° 0 mm 2 mps 686 mmHg 32%
    12:00 +10°C° 0 mm 3 mps 685 mmHg 29%
    13:00 +10°C° 0 mm 3 mps 685 mmHg 28%
    14:00 +11°C° 0 mm 3 mps 684 mmHg 28%
    15:00 +11°C° 0 mm 3 mps 684 mmHg 27%
    16:00 +10°C° 0 mm 3 mps 683 mmHg 29%
    17:00 +10°C° 0 mm 2 mps 683 mmHg 30%
    18:00 +9°C° 0 mm 2 mps 683 mmHg 32%
    19:00 +9°C° 0 mm 2 mps 683 mmHg 33%
    20:00 +8°C° 0 mm 3 mps 684 mmHg 34%
    21:00 +7°C° 0 mm 3 mps 684 mmHg 36%
    22:00 +7°C° 0 mm 3 mps 683 mmHg 37%
    23:00 +5°C° 0 mm 3 mps 683 mmHg 38%

    Day after tomorrow, 24 March, Sunday

    Time Temperature Precipitation Wind Pressure Humidity
    00:00 +5°C° 0 mm 3 mps 683 mmHg 39%
    01:00 +5°C° 0 mm 3 mps 682 mmHg 40%
    02:00 +5°C° 0 mm 3 mps 682 mmHg 42%
    03:00 +6°C° 0 mm 2 mps 682 mmHg 43%
    04:00 +6°C° 0.1 mm 2 mps 681 mmHg 46%
    05:00 +6°C° 0.1 mm 2 mps 681 mmHg 48%
    06:00 +5°C° 0.1 mm 2 mps 681 mmHg 51%
    07:00 +7°C° 0.1 mm 3 mps 681 mmHg 48%
    08:00 +8°C° 0.1 mm 3 mps 681 mmHg 46%
    09:00 +8°C° 0.1 mm 4 mps 681 mmHg 44%
    10:00 +9°C° 0.2 mm 3 mps 680 mmHg 44%
    11:00 +10°C° 0.2 mm 3 mps 680 mmHg 44%
    12:00 +12°C° 0.2 mm 2 mps 679 mmHg 44%
    13:00 +10°C° 0.3 mm 3 mps 679 mmHg 47%
    14:00 +10°C° 0.3 mm 4 mps 679 mmHg 50%
    15:00 +9°C° 0.3 mm 5 mps 678 mmHg 52%
    16:00 +8°C° 0.4 mm 4 mps 679 mmHg 55%
    17:00 +7°C° 0.4 mm 4 mps 679 mmHg 58%
    18:00 +6°C° 0.4 mm 4 mps 679 mmHg 61%
    19:00 +7°C° 0.1 mm 3 mps 680 mmHg 61%
    20:00 +7°C° 0.1 mm 3 mps 680 mmHg 61%
    21:00 +5°C° 0.1 mm 3 mps 681 mmHg 61%
    22:00 +5°C° 0 mm 3 mps 681 mmHg 60%
    23:00 +4°C° 0 mm 3 mps 681 mmHg 59%

    25 March, Monday

    Time Temperature Precipitation Wind Pressure Humidity
    00:00 +4°C° 0 mm 3 mps 681 mmHg 59%
    01:00 +4°C° 0 mm 3 mps 681 mmHg 59%
    02:00 +4°C° 0 mm 2 mps 681 mmHg 60%
    03:00 +4°C° 0 mm 2 mps 681 mmHg 61%
    04:00 +4°C° 0 mm 2 mps 681 mmHg 61%
    05:00 +4°C° 0 mm 2 mps 682 mmHg 62%
    06:00 +4°C° 0 mm 2 mps 682 mmHg 63%
    07:00 +5°C° 0 mm 2 mps 682 mmHg 58%
    08:00 +7°C° 0 mm 1 mps 682 mmHg 53%
    09:00 +9°C° 0 mm 1 mps 682 mmHg 48%
    10:00 +10°C° 0 mm 1 mps 682 mmHg 46%
    11:00 +11°C° 0 mm 1 mps 682 mmHg 44%
    12:00 +12°C° 0 mm 2 mps 681 mmHg 42%
    13:00 +13°C° 0 mm 1 mps 681 mmHg 41%
    14:00 +13°C° 0 mm 1 mps 681 mmHg 40%
    15:00 +13°C° 0 mm 1 mps 680 mmHg 39%
    16:00 +13°C° 0 mm 2 mps 680 mmHg 41%
    17:00 +12°C° 0 mm 2 mps 680 mmHg 43%
    18:00 +11°C° 0 mm 3 mps 680 mmHg 44%
    19:00 +10°C° 0 mm 3 mps 681 mmHg 47%
    20:00 +9°C° 0 mm 3 mps 681 mmHg 49%
    21:00 +8°C° 0 mm 4 mps 681 mmHg 52%
    22:00 +8°C° 0 mm 3 mps 681 mmHg 53%
    23:00 +8°C° 0 mm 3 mps 681 mmHg 54%

    26 March, Tuesday

    Time Temperature Precipitation Wind Pressure Humidity
    00:00 +7°C° 0 mm 3 mps 680 mmHg 55%
    01:00 +7°C° 0 mm 3 mps 681 mmHg 56%
    02:00 +6°C° 0 mm 2 mps 681 mmHg 57%
    03:00 +6°C° 0 mm 2 mps 681 mmHg 58%
    04:00 +6°C° 0.1 mm 2 mps 681 mmHg 59%
    05:00 +6°C° 0.1 mm 2 mps 681 mmHg 59%
    06:00 +5°C° 0.1 mm 2 mps 681 mmHg 60%
    07:00 +6°C° 0.1 mm 2 mps 682 mmHg 56%
    08:00 +7°C° 0.1 mm 2 mps 682 mmHg 52%
    09:00 +8°C° 0.1 mm 2 mps 682 mmHg 48%
    10:00 +10°C° 0 mm 1 mps 682 mmHg 46%
    11:00 +11°C° 0 mm 1 mps 682 mmHg 43%
    12:00 +12°C° 0 mm 1 mps 682 mmHg 40%
    13:00 +12°C° 0 mm 1 mps 682 mmHg 39%
    14:00 +13°C° 0 mm 1 mps 682 mmHg 38%
    15:00 +13°C° 0 mm 1 mps 682 mmHg 37%
    16:00 +13°C° 0 mm 1 mps 682 mmHg 38%
    17:00 +12°C° 0 mm 1 mps 682 mmHg 39%
    18:00 +12°C° 0 mm 1 mps 683 mmHg 40%
    19:00 +11°C° 0 mm 1 mps 683 mmHg 43%
    20:00 +10°C° 0 mm 1 mps 684 mmHg 45%
    21:00 +9°C° 0 mm 1 mps 684 mmHg 48%
    22:00 +9°C° 0 mm 1 mps 685 mmHg 49%
    23:00 +8°C° 0 mm 1 mps 685 mmHg 51%

    27 March, Wednesday

    Time Temperature Precipitation Wind Pressure Humidity
    00:00 +8°C° 0 mm 1 mps 685 mmHg 52%
    01:00 +7°C° 0 mm 1 mps 685 mmHg 53%
    02:00 +7°C° 0 mm 1 mps 685 mmHg 53%
    03:00 +6°C° 0 mm 1 mps 685 mmHg 54%
    04:00 +6°C° 0 mm 1 mps 685 mmHg 56%
    05:00 +6°C° 0 mm 1 mps 686 mmHg 57%
    06:00 +6°C° 0 mm 1 mps 686 mmHg 58%
    07:00 +6°C° 0 mm 2 mps 686 mmHg 54%
    08:00 +7°C° 0 mm 2 mps 686 mmHg 49%
    09:00 +9°C° 0 mm 2 mps 686 mmHg 45%
    10:00 +10°C° 0 mm 3 mps 686 mmHg 42%
    11:00 +11°C° 0 mm 3 mps 686 mmHg 40%
    12:00 +12°C° 0 mm 3 mps 685 mmHg 38%
    13:00 +12°C° 0 mm 3 mps 685 mmHg 37%
    14:00 +13°C° 0 mm 3 mps 685 mmHg 37%
    15:00 +13°C° 0 mm 3 mps 685 mmHg 37%
    16:00 +12°C° 0 mm 3 mps 685 mmHg 38%
    17:00 +13°C° 0 mm 2 mps 685 mmHg 40%
    18:00 +12°C° 0 mm 2 mps 685 mmHg 42%
    19:00 +10°C° 0 mm 2 mps 685 mmHg 43%
    20:00 +10°C° 0 mm 2 mps 686 mmHg 44%
    21:00 +9°C° 0 mm 2 mps 686 mmHg 45%
    22:00 +9°C° 0.1 mm 2 mps 686 mmHg 47%
    23:00 +8°C° 0.1 mm 2 mps 686 mmHg 49%
    Show more